Regional Weather Roundup
Issued by NWS

Home | Current Version | Previous Version | Text Only | Print | Product List | Glossary Off
Versions: 1 2 3 4 5 6 7 8 9 10 11 12 13 14 15 16 17 18 19 20 21 22 23 24 25 26 27 28 29 30 31 32 33 34 35 36 37 38 39 40 41 42 43 44 45 46 47 48 49 50

000
ASUS43 KMPX 301010
RWRMN
WEATHER ROUNDUP FOR MINNESOTA
NATIONAL WEATHER SERVICE TWIN CITIES/CHANHASSEN MN
500 AM CDT TUE AUG 30 2016


NOTE: "FAIR" INDICATES FEW OR NO CLOUDS BELOW 12,000 FEET WITH NO
SIGNIFICANT WEATHER AND/OR OBSTRUCTIONS TO VISIBILITY. N/A MEANS
CURRENT SKY AND/OR WEATHER CONDITIONS ARE NOT AVAILABLE.

MNZ060>063-068>070-301100-
   Twin Cities Metro

CITY           SKY/WX    TMP DP  RH WIND       PRES   REMARKS
TWIN CITIES    CLOUDY    67  64  90 NW6       30.14S
ST PAUL        CLOUDY    66  64  93 NW5       30.14S
CRYSTAL        CLOUDY    67  63  87 W6        30.14R
BLAINE         CLOUDY    68  68 100 NW3       30.14S
LAKEVILLE      CLOUDY    66  66 100 N5        30.14R
EDEN PRAIRIE   CLOUDY    68  65  90 NW8       30.14R
LAKEVILLE      CLOUDY    66  66 100 N5        30.14R
SOUTH ST PAUL  CLOUDY    67  66  96 NW3       30.13F
LAKE ELMO      FAIR      64  63  94 CALM      30.14F
$$
MNZ001>005-007-008-013>017-022>024-027-028-301100-
   Northwest Minnesota

CITY           SKY/WX    TMP DP  RH WIND       PRES   REMARKS
BEMIDJI        FOG       45  45  99 NW7       30.23F VSB 1/2
HALLOCK        CLEAR     46  45  93 W3        30.23R
ROSEAU         CLEAR     46  41  81 S3        30.24R HAZE
WARROAD        CLEAR     46  43  87 CALM      30.23S
THIEF RVR FALL CLEAR     49  47  93 CALM      30.25R
CROOKSTON      CLEAR     52  50  93 CALM      30.24S
FOSSTON        FOG       46  45  93 CALM      30.25R VSB 3/4
DETROIT LAKES  PTCLDY    59  55  88 CALM      30.25S
MOORHEAD       CLEAR     52  48  87 CALM      30.24S
PARK RAPIDS    CLEAR     55  52  89 CALM      30.23R
MAHNOMEN       FAIR      51  50  96 CALM      30.24S
$$
MNZ006-009>011-018-025>026-301100-
   North Central Minnesota

CITY           SKY/WX    TMP DP  RH WIND       PRES   REMARKS
BAUDETTE       CLEAR     49  49 100 CALM      30.22R
FLAG ISLAND    CLEAR     57  48  72 CALM      30.21R
INTL FALLS     CLEAR     43  42  97 CALM      30.20S FOG
WASKISH        CLEAR     50  48  93 CALM      30.23S
BIG FORK       CLEAR     54  52  94 CALM      30.21S
LONGVILLE      CLEAR     57  55  94 NW3       30.21S
GRAND RAPIDS   CLEAR     56  55  97 CALM      30.22R
CRANE LAKE     CLEAR     48  48 100 S1        30.20F
COOK           FOG       54  54 100 CALM      30.19S VSB 1
WALKER         FAIR      53  53  99 W3        30.23R
$$
MNZ012-019>021-037-301100-
   Northeast Minnesota

CITY           SKY/WX    TMP DP  RH WIND       PRES   REMARKS
DULUTH         CLOUDY    64  63  96 N13       30.15S
ELY            CLEAR     57  55  94 CALM      30.17R
HIBBING        CLEAR     56  55  97 N5        30.19R
EVELETH        CLEAR     60  58  94 N3        30.19R
DULUTH HARBOR  CLOUDY    70  64  83 CALM      30.13S
TWO HARBORS    MOCLDY    68  63  83 CALM      30.12S
SILVER BAY     PTCLDY    66  61  82 NW6       30.12S
GRAND MARAIS     N/A     66  60  81 CALM      30.09R
G MARAIS ARPRT CLEAR     57  54  88 N3        30.15S
$$
MNZ029>031-032-039>041-046>048-054>057-064-301100-
   West Central Minnesota

CITY           SKY/WX    TMP DP  RH WIND       PRES   REMARKS
FERGUS FALLS   CLEAR     59  57  94 NE3       30.24S
WHEATON        CLEAR     59  57  94 CALM      30.24S
MORRIS         PTCLDY    61  59  94 NW3       30.21R
ALEXANDRIA     CLEAR     63  59  87 NE6       30.23R
ELBOW LAKE     FAIR      60  59  97 E5        30.22S
WADENA         CLEAR     55  54  94 N6        30.22S
GLENWOOD       CLEAR     63  61  94 N5        30.22R
APPLETON       CLOUDY    64  61  88 N3        30.19F
BENSON         CLOUDY    63  59  88 N5        30.20S
ORTONVILLE     CLOUDY    63  59  88 CALM      30.21S
MADISON        CLOUDY    66  64  94 NW3       30.20F
WILLMAR        FAIR      66  64  94 NW6       30.20S
$$
MNZ033>034-036-042>043-049>051-058-059-301100-
   Central Minnesota

CITY           SKY/WX    TMP DP  RH WIND       PRES   REMARKS
ST CLOUD       CLOUDY    62  62 100 W5        30.17S
SAUK CENTRE    CLOUDY    65  63  93 N5        30.21S
PAYNESVILLE    CLOUDY    66  66 100 CALM      30.20S
AITKIN         CLEAR     63  55  77 CALM      30.19S
PINE RIVER     PTCLDY    61  55  82 NW6       30.23S
BRAINERD       CLEAR     60  59  96 N7        30.20S
STAPLES        CLEAR     55  54  94 CALM      30.21S
LONG PRAIRIE   FAIR      61  59  94 NW3       30.21F
LITTLE FALLS   CLOUDY    64  61  88 N3        30.19F
LITCHFIELD     CLOUDY    66  66 100 CALM      30.18F FOG
BUFFALO        CLOUDY    66  63  90 CALM      30.17F
MAPLE LAKE     CLOUDY    66  65  97 CALM      30.18S
HUTCHINSON     CLEAR     66  65  97 N3        30.17F
$$
MNZ037-044-045-052-053-301100-
   East Central Minnesota

CITY           SKY/WX    TMP DP  RH WIND       PRES   REMARKS
PRINCETON      CLOUDY    64  63  94 CALM      30.17S
MORA           PTCLDY    63  63 100 N3        30.18F
CAMBRIDGE      CLOUDY    66  61  82 CALM      30.14S
RUSH CITY      CLOUDY    63  62  96 NW3       30.15F
MOOSE LAKE     CLOUDY    64  61  88 N3        30.15F
HINCKLEY       FAIR      64  63  94 NW5       30.16S
CLOQUET        CLOUDY    63  61  94 NW6       30.16S
MCGREGOR       PTCLDY    61  59  94 NW5       30.19S
$$
MNZ071>073-080-081-089-090-097-098-301100-
   Southwest Minnesota

CITY           SKY/WX    TMP DP  RH WIND       PRES   REMARKS
MONTEVIDEO     CLOUDY    66  64  94 N5        30.21S
GRANITE FALLS  LGT RAIN  69  67  92 S8        30.20S
CANBY          LGT RAIN  69  66  90 CALM      30.21F
MARSHALL       CLOUDY    70  68  93 N3        30.22R THUNDER
REDWOOD FALLS  CLOUDY    67  64  90 S13       30.16F
OLIVIA         CLOUDY    64  63  94 SW3       30.16S
PIPESTONE        N/A     70  66  88 E3        30.22R
WINDOM         CLOUDY    66  64  94 E9        30.22F
WORTHINGTON    CLOUDY    70  68  93 N9        30.23R
JACKSON        RAIN      68  64  88 NE13      30.24R
TRACY          CLOUDY    68  66  93 E6        30.22R
SLAYTON        CLOUDY    66  66 100 SE9       30.23R
$$
MNZ065>067-074>077-082>085-091>093-301100-
   South Central Minnesota

CITY           SKY/WX    TMP DP  RH WIND       PRES   REMARKS
NEW ULM        CLOUDY    66  64  94 E7        30.17F
ST JAMES       CLOUDY    66  64  94 E8        30.22F
FAIRMONT       CLOUDY    67  65  93 N8        30.23R
GLENCOE        CLOUDY    66  66 100 W6        30.16F
FARIBAULT      CLOUDY    66  66 100 S8        30.14F
OWATONNA       TSTM      66  64  94 SW5       30.19F
WASECA         TSTM      64  61  88 NE3       30.21F
ALBERT LEA     MOCLDY    70  66  88 NE6       30.21R THUNDER
$$
MNZ078>079-086>088-094>096-301100-
   Southeast Minnesota

CITY           SKY/WX    TMP DP  RH WIND       PRES   REMARKS
ROCHESTER      MOCLDY    68  64  87 NE6       30.20F
RED WING       CLOUDY    68  64  88 CALM      30.09F
STANTON        CLOUDY    68  64  88 SW8       30.11F
DODGE CENTER   PTCLDY    64  63  94 SE6       30.19F
WINONA         CLOUDY    70  68  94 NW6       30.16F
AUSTIN         MOCLDY    68  64  88 NE6       30.20S
PRESTON        FOG       68  66  96 NW5       30.19F VSB 1/2
$$
ABBREVIATIONS USED IN REMARKS
   TC - TEMPERATURES IN CELSIUS
  WCI - WIND CHILL INDEX
   HX - HEAT INDEX
  VSB - VISIBILITY
$$




USA.gov is the U.S. government's official web portal to all federal, state and local government web resources and services.